Location: Casilda
(33.0440°S, 61.1680°W)
Time: 13:42:32
(UTC-03:00)

ISS - Pass Details

Date: 17 January 2025
Orbit: 415 x 418 km, 51.6° (Epoch: 13 January)

Event Time Altitude Azimuth Distance (km) Brightness Sun altitude
Exits shadow 03:51:40 - 61° (ENE) 1,980 -0.2 -24.5°
Enters shadow 04:48:45 -72° 308° (NW) 12,514 3.7 -15.9°
Maximum altitude 05:27:31 70° 46° (NE) 452 -3.6 -9.3°
